Location: Newark
(50.0953°N, 2.1719°E)
Time: 08:50:25
(UTC+00:00)

N. Korean satellite - Pass Details

Date: 20 January 2020
Orbit: 456 x 505 km, 97.2° (Epoch: 25 February)

Event Time Altitude Azimuth Distance (km) Brightness Sun altitude
Rises 04:42:39 0° 29° (NNE) 2,518 10.6 -28.0°
Reaches altitude 10° 04:45:23 10° 53° (NE) 1,645 9.9 -27.6°
Maximum altitude 04:47:33 15° 91° (E) 1,347 9.7 -27.2°
Drops below altitude 10° 04:49:44 10° 129° (SE) 1,652 9.9 -26.9°
Sets 04:52:28 0° 153° (SSE) 2,536 10.6 -26.5°
